This is the latest recevied weather packets stored in our database for station/object WY7EM. If no packets are shown the sender has not sent any weather packets the latest 10 day(s).
| Time | Temp. | Humidity | Pressure | Rain* | Wind** | Luminosity | Snow |
|---|---|---|---|---|---|---|---|
| 1778178890 | 22.22° C | 20% | 1018.9 hPa | 0 mm | - | 841 W/m² | - |
| 1778178588 | 22.22° C | 20% | 1019 hPa | 0 mm | - | 841 W/m² | - |
| 1778178284 | 22.22° C | 20% | 1019 hPa | 0 mm | - | 838 W/m² | - |
| 1778177980 | 21.67° C | 20% | 1019.1 hPa | 0 mm | - | 829 W/m² | - |
| 1778177676 | 22.22° C | 19% | 1019.3 hPa | 0 mm | - | 823 W/m² | - |
| 1778177373 | 21.11° C | 20% | 1019.1 hPa | 0 mm | - | 817 W/m² | - |
| 1778177070 | 21.67° C | 20% | 1019.3 hPa | 0 mm | - | 805 W/m² | - |
| 1778176766 | 21.67° C | 20% | 1019.4 hPa | 0 mm | - | 794 W/m² | - |
| 1778176463 | 21.67° C | 20% | 1019.5 hPa | 0 mm | - | 788 W/m² | - |
| 1778176160 | 21.67° C | 20% | 1019.4 hPa | 0 mm | - | 779 W/m² | - |
| 1778175857 | 21.67° C | 20% | 1019.6 hPa | 0 mm | - | 768 W/m² | - |
| 1778175555 | 20.56° C | 21% | 1019.6 hPa | 0 mm | - | 758 W/m² | - |
| 1778175252 | 20.56° C | 21% | 1019.5 hPa | 0 mm | - | 746 W/m² | - |
| 1778174948 | 21.11° C | 21% | 1019.6 hPa | 0 mm | - | 734 W/m² | - |
| 1778174645 | 20° C | 21% | 1019.6 hPa | 0 mm | - | 722 W/m² | - |
| 1778174341 | 19.44° C | 22% | 1019.7 hPa | 0 mm | - | 708 W/m² | - |
| 1778174038 | 18.89° C | 22% | 1020 hPa | 0 mm | - | 697 W/m² | - |
| 1778173735 | 18.89° C | 22% | 1019.9 hPa | 0 mm | - | 686 W/m² | - |
| 1778173431 | 19.44° C | 22% | 1020.2 hPa | 0 mm | - | 670 W/m² | - |
| 1778173127 | 18.89° C | 23% | 1020.2 hPa | 0 mm | - | 659 W/m² | - |
| 1778172823 | 19.44° C | 22% | 1020 hPa | 0 mm | - | 648 W/m² | - |
| 1778172520 | 18.33° C | 23% | 1020.3 hPa | 0 mm | - | 635 W/m² | - |
| 1778172217 | 17.78° C | 23% | 1020.5 hPa | 0 mm | - | 621 W/m² | - |
| 1778171914 | 18.33° C | 23% | 1020.3 hPa | 0 mm | - | 609 W/m² | - |
| 1778171611 | 17.78° C | 24% | 1020.5 hPa | 0 mm | - | 594 W/m² | - |
* Rain latest hour (hover to see other rain measurements)
** Current wind speed in m/s (hover to see current wind gust speed)